Terminal Aerodrome Forecast
Issued by NWS Charleston, WV

Current Version | Previous Version | Graphics & Text | Print | Product List | Glossary On
Versions: 1 2 3 4 5 6 7 8 9 10 11 12 13 14 15 16 17 18 19 20 21 22 23 24
831
FTUS41 KRLX 222009 AAA
TAFHTS
TAF AMD
KHTS 222009Z 2220/2318 16004KT 6SM BR OVC008
      TEMPO 2220/2222 BKN015 OVC025
     FM222200 16004KT P6SM OVC025
      TEMPO 2222/2223 OVC035
     FM222300 16004KT P6SM OVC035
     FM230200 00000KT 6SM BR BKN050
     FM230300 00000KT 5SM BR BKN060
     FM231200 19004KT 6SM BR BKN040=

USA.gov is the U.S. government's official web portal to all federal, state and local government web resources and services.